Powrót do katalogu

FREGAT R/B

AktywnyHEO
NORAD 54378·ROCKET BODY·🇷🇺 Russia

Wystrzelony Nov 28, 2022 z Plesetsk Cosmodrome

Loading…

Następne Przeloty (najbliższe 24 godziny)

TLE

ŚwieżeSource: Space-Track

Epoka: Sep 13, 2026, 06:10 UTC

1 54378U 22161B   26256.25727085  .00000014  00000-0  00000-0 0  9991
2 54378  64.6947 191.8490 0072643 127.3438 233.3153  2.08586135 28645

Śledź FREGAT R/B w czasie rzeczywistym z AllMySat

Download on the App Store